Starlink 3580

operational
NORAD ID: 51781 Int'l Des: 2022-017 Owner: SPXS Country: US Constellation: starlink
LEOCIRCULAR

Starlink 3580について

説明を読み込み中...

リアルタイム位置

3D地球を読み込み中...

次回通過

高度履歴

Altitude vs Time

uPlot chart will show altitude changes over time

軌道要素

1 51781U 22017P 25258.70657561 .00000214 00000-0 31512-4 0 9996
2 51781 53.2189 44.6124 0001437 80.4932 279.6223 15.08836160196009
Epoch: Sep 15, 2025 • Age: 20 hours

現在のステータス

高度 540.7 km
速度 7.59 km/s
衛星直下点 0.56°N, 32.37°E
打ち上げ日 Feb 25, 2022
運用期間 3.5 years
タイプ internet

技術仕様

分類 Payload
質量 297.00 kg
乾燥質量 275.00 kg
総質量 297.00 kg
長さ 0.20 m
直径 2.80 m
スパン 9.00 m
形状 Box + pan
製造者 SPXS
バスタイプ Starlink
フェーズステータス In Orbit
所有者/国 SPXS/US

大規模コンステレーション

Loading constellations...